Time,TemperatureF,DewpointF,PressureIn,WindDirection,WindDirectionDegrees,WindSpeedMPH,WindSpeedGustMPH,Humidity,HourlyPrecipIn,Conditions,Clouds,dailyrainin,SoftwareType,DateUTC
2013-04-23 00:02:00,50.2,48.0,29.89,NNW,329,0.0,4.0,92,0.00,,,0.00,meteohub,2013-04-23 07:02:00,
2013-04-23 00:07:00,50.2,48.0,29.89,NE,36,1.0,4.0,92,0.00,,,0.00,meteohub,2013-04-23 07:07:00,
2013-04-23 00:12:00,50.2,48.0,29.89,NE,37,2.0,5.0,92,0.00,,,0.00,meteohub,2013-04-23 07:12:00,
2013-04-23 00:17:00,50.0,47.8,29.89,North,352,2.0,5.0,92,0.00,,,0.00,meteohub,2013-04-23 07:17:00,
2013-04-23 00:22:00,49.8,47.7,29.89,North,356,2.0,5.0,92,0.00,,,0.00,meteohub,2013-04-23 07:22:00,
2013-04-23 00:27:00,49.8,47.7,29.88,West,277,3.0,3.0,92,0.00,,,0.00,meteohub,2013-04-23 07:27:00,
2013-04-23 00:32:00,49.8,47.8,29.88,NE,36,0.0,3.0,93,0.00,,,0.00,meteohub,2013-04-23 07:32:00,
2013-04-23 00:37:00,49.8,47.7,29.88,North,4,2.0,5.0,92,0.00,,,0.00,meteohub,2013-04-23 07:37:00,
2013-04-23 00:42:00,49.8,47.7,29.88,NNE,12,2.0,5.0,92,0.00,,,0.00,meteohub,2013-04-23 07:42:00,
2013-04-23 00:47:00,49.8,47.7,29.88,NNW,347,2.0,5.0,92,0.00,,,0.00,meteohub,2013-04-23 07:47:00,
2013-04-23 00:52:00,49.8,47.7,29.88,NNE,20,2.0,5.0,92,0.00,,,0.00,meteohub,2013-04-23 07:52:00,
2013-04-23 00:57:00,49.8,47.7,29.88,NW,308,2.0,4.0,92,0.00,,,0.00,meteohub,2013-04-23 07:57:00,
2013-04-23 01:02:00,49.8,47.7,29.89,NNE,12,1.0,5.0,92,0.00,,,0.00,meteohub,2013-04-23 08:02:00,
2013-04-23 01:07:00,49.8,47.3,29.88,NNW,345,2.0,5.0,91,0.00,,,0.00,meteohub,2013-04-23 08:07:00,
2013-04-23 01:12:00,49.6,47.1,29.88,North,6,3.0,4.0,91,0.00,,,0.00,meteohub,2013-04-23 08:12:00,
2013-04-23 01:17:00,49.6,47.1,29.88,ENE,78,0.0,4.0,91,0.00,,,0.00,meteohub,2013-04-23 08:17:00,
2013-04-23 01:22:00,49.5,46.9,29.88,North,1,1.0,6.0,91,0.00,,,0.00,meteohub,2013-04-23 08:22:00,
2013-04-23 01:27:00,49.5,47.3,29.88,NE,41,3.0,6.0,92,0.00,,,0.00,meteohub,2013-04-23 08:27:00,
2013-04-23 01:32:00,49.3,47.1,29.88,NNW,338,2.0,6.0,92,0.00,,,0.00,meteohub,2013-04-23 08:32:00,
2013-04-23 01:37:00,49.3,47.1,29.88,North,5,2.0,6.0,92,0.00,,,0.00,meteohub,2013-04-23 08:37:00,
2013-04-23 01:42:00,49.1,46.9,29.88,North,356,2.0,6.0,92,0.00,,,0.00,meteohub,2013-04-23 08:42:00,
2013-04-23 01:47:00,48.9,46.8,29.88,NNW,336,1.0,5.0,92,0.00,,,0.00,meteohub,2013-04-23 08:47:00,
2013-04-23 01:52:00,48.9,46.8,29.88,NNE,23,2.0,5.0,92,0.00,,,0.00,meteohub,2013-04-23 08:52:00,
2013-04-23 01:57:00,48.7,46.6,29.88,NNE,15,1.0,5.0,92,0.00,,,0.00,meteohub,2013-04-23 08:57:00,
2013-04-23 02:02:00,48.7,46.6,29.88,ENE,71,0.0,5.0,92,0.00,,,0.00,meteohub,2013-04-23 09:02:00,
2013-04-23 02:07:00,48.9,46.8,29.88,NE,43,2.0,5.0,92,0.00,,,0.00,meteohub,2013-04-23 09:07:00,
2013-04-23 02:12:00,48.9,46.8,29.88,North,354,1.0,5.0,92,0.00,,,0.00,meteohub,2013-04-23 09:12:00,
2013-04-23 02:17:00,48.9,46.8,29.88,NNE,25,2.0,5.0,92,0.00,,,0.00,meteohub,2013-04-23 09:17:00,
2013-04-23 02:22:00,48.9,46.8,29.88,NNW,334,0.0,5.0,92,0.00,,,0.00,meteohub,2013-04-23 09:22:00,
2013-04-23 02:27:00,48.9,46.8,29.88,NNW,336,1.0,5.0,92,0.00,,,0.00,meteohub,2013-04-23 09:27:00,
2013-04-23 02:32:00,48.7,46.6,29.88,NNW,338,1.0,4.0,92,0.00,,,0.00,meteohub,2013-04-23 09:32:00,
2013-04-23 02:37:00,48.7,46.6,29.87,NW,307,2.0,4.0,92,0.00,,,0.00,meteohub,2013-04-23 09:37:00,
2013-04-23 02:42:00,48.7,46.6,29.87,North,352,3.0,4.0,92,0.00,,,0.00,meteohub,2013-04-23 09:42:00,
2013-04-23 02:47:00,48.7,46.6,29.87,North,1,3.0,4.0,92,0.00,,,0.00,meteohub,2013-04-23 09:47:00,
2013-04-23 02:52:00,48.7,46.6,29.87,NNE,27,1.0,4.0,92,0.00,,,0.00,meteohub,2013-04-23 09:52:00,
2013-04-23 02:57:00,48.7,46.6,29.87,North,9,0.0,4.0,92,0.00,,,0.00,meteohub,2013-04-23 09:57:00,
2013-04-23 03:02:00,48.9,46.8,29.87,North,8,0.0,3.0,92,0.00,,,0.00,meteohub,2013-04-23 10:02:00,
2013-04-23 03:07:00,48.9,46.8,29.87,NNW,333,1.0,2.0,92,0.00,,,0.00,meteohub,2013-04-23 10:07:00,
2013-04-23 03:12:00,48.7,46.6,29.87,NW,307,0.0,2.0,92,0.00,,,0.00,meteohub,2013-04-23 10:12:00,
2013-04-23 03:17:00,48.7,46.6,29.87,SSW,212,0.0,1.0,92,0.00,,,0.00,meteohub,2013-04-23 10:17:00,
2013-04-23 03:22:00,48.7,46.2,29.87,SSW,212,0.0,1.0,91,0.00,,,0.00,meteohub,2013-04-23 10:22:00,
2013-04-23 03:27:00,48.7,46.6,29.87,WNW,296,0.0,1.0,92,0.00,,,0.00,meteohub,2013-04-23 10:27:00,
2013-04-23 03:32:00,48.7,46.2,29.87,WNW,296,0.0,1.0,91,0.00,,,0.00,meteohub,2013-04-23 10:32:00,
2013-04-23 03:38:00,48.7,46.2,29.87,NNW,333,0.0,1.0,91,0.00,,,0.00,meteohub,2013-04-23 10:38:00,
2013-04-23 03:43:00,48.9,46.4,29.88,NW,323,0.0,1.0,91,0.00,,,0.00,meteohub,2013-04-23 10:43:00,
2013-04-23 03:48:00,49.3,46.4,29.87,NNW,328,1.0,1.0,90,0.00,,,0.00,meteohub,2013-04-23 10:48:00,
2013-04-23 03:53:00,49.6,46.2,29.88,North,1,0.0,2.0,88,0.00,,,0.00,meteohub,2013-04-23 10:53:00,
2013-04-23 03:58:00,50.2,46.4,29.88,NNW,336,0.0,2.0,87,0.00,,,0.00,meteohub,2013-04-23 10:58:00,
2013-04-23 04:03:00,50.4,46.0,29.88,NNW,336,0.0,1.0,85,0.00,,,0.00,meteohub,2013-04-23 11:03:00,
2013-04-23 04:08:00,50.5,45.9,29.88,NNW,328,0.0,1.0,84,0.00,,,0.00,meteohub,2013-04-23 11:08:00,
2013-04-23 04:13:00,50.9,45.9,29.88,NNW,332,0.0,1.0,83,0.00,,,0.00,meteohub,2013-04-23 11:13:00,
2013-04-23 04:18:00,51.1,46.0,29.88,NNW,332,0.0,1.0,83,0.00,,,0.00,meteohub,2013-04-23 11:18:00,
2013-04-23 04:23:00,51.1,45.9,29.88,NNW,339,0.0,1.0,82,0.00,,,0.00,meteohub,2013-04-23 11:23:00,
2013-04-23 04:29:00,51.1,45.9,29.88,NNW,339,0.0,2.0,82,0.00,,,0.00,meteohub,2013-04-23 11:29:00,
2013-04-23 04:34:00,51.1,45.5,29.88,NNW,338,0.0,2.0,81,0.00,,,0.00,meteohub,2013-04-23 11:34:00,
2013-04-23 04:39:00,51.3,45.7,29.88,North,350,0.0,2.0,81,0.00,,,0.00,meteohub,2013-04-23 11:39:00,
2013-04-23 04:44:00,51.3,45.3,29.88,NNW,340,1.0,1.0,80,0.00,,,0.00,meteohub,2013-04-23 11:44:00,
2013-04-23 04:49:00,51.4,45.1,29.88,NNW,348,0.0,2.0,79,0.00,,,0.00,meteohub,2013-04-23 11:49:00,
2013-04-23 04:54:00,51.6,45.0,29.88,NNW,347,0.0,2.0,78,0.00,,,0.00,meteohub,2013-04-23 11:54:00,
2013-04-23 04:59:00,51.6,45.0,29.88,NNW,347,0.0,2.0,78,0.00,,,0.00,meteohub,2013-04-23 11:59:00,
2013-04-23 05:04:00,51.8,44.8,29.88,SE,146,0.0,1.0,77,0.00,,,0.00,meteohub,2013-04-23 12:04:00,
2013-04-23 05:09:00,52.5,44.4,29.88,SE,145,0.0,1.0,74,0.00,,,0.00,meteohub,2013-04-23 12:09:00,
2013-04-23 05:14:00,53.1,44.2,29.88,NE,40,0.0,1.0,72,0.00,,,0.00,meteohub,2013-04-23 12:14:00,
2013-04-23 05:20:00,54.0,44.1,29.88,NW,308,0.0,2.0,69,0.00,,,0.00,meteohub,2013-04-23 12:20:00,
2013-04-23 05:25:00,54.7,43.5,29.89,NNW,346,0.0,2.0,66,0.00,,,0.00,meteohub,2013-04-23 12:25:00,
2013-04-23 05:30:00,55.0,43.5,29.89,NNW,346,1.0,2.0,65,0.00,,,0.00,meteohub,2013-04-23 12:30:00,
2013-04-23 05:35:00,55.0,43.2,29.89,ENE,61,0.0,2.0,64,0.00,,,0.00,meteohub,2013-04-23 12:35:00,
2013-04-23 05:40:00,55.2,41.5,29.89,ENE,72,0.0,1.0,60,0.00,,,0.00,meteohub,2013-04-23 12:40:00,
2013-04-23 05:45:00,55.9,40.5,29.89,ENE,59,0.0,1.0,56,0.00,,,0.00,meteohub,2013-04-23 12:45:00,
2013-04-23 05:50:00,56.8,39.9,29.89,SSW,207,0.0,1.0,53,0.00,,,0.00,meteohub,2013-04-23 12:50:00,
2013-04-23 05:55:00,57.0,41.5,29.89,SE,141,0.0,1.0,56,0.00,,,0.00,meteohub,2013-04-23 12:55:00,
2013-04-23 06:00:00,57.0,39.6,29.90,SSE,150,1.0,1.0,52,0.00,,,0.00,meteohub,2013-04-23 13:00:00,
2013-04-23 06:06:00,57.9,38.8,29.90,SSE,152,1.0,2.0,49,0.00,,,0.00,meteohub,2013-04-23 13:06:00,
2013-04-23 06:11:00,58.6,40.6,29.90,SSE,149,0.0,2.0,51,0.00,,,0.00,meteohub,2013-04-23 13:11:00,
2013-04-23 06:16:00,59.2,39.0,29.90,SE,128,0.0,2.0,47,0.00,,,0.00,meteohub,2013-04-23 13:16:00,
2013-04-23 06:21:00,60.1,38.1,29.90,SE,125,1.0,4.0,44,0.00,,,0.00,meteohub,2013-04-23 13:21:00,
2013-04-23 06:26:00,60.3,37.8,29.90,SE,143,2.0,4.0,43,0.00,,,0.00,meteohub,2013-04-23 13:26:00,
2013-04-23 06:31:00,60.4,36.7,29.90,SSW,200,0.0,4.0,41,0.00,,,0.00,meteohub,2013-04-23 13:31:00,
2013-04-23 06:36:00,60.3,38.3,29.91,SSE,166,0.0,3.0,44,0.00,,,0.00,meteohub,2013-04-23 13:36:00,
2013-04-23 06:41:00,59.5,38.1,29.90,South,190,0.0,3.0,45,0.00,,,0.00,meteohub,2013-04-23 13:41:00,
2013-04-23 06:46:00,59.5,38.1,29.91,ESE,112,1.0,1.0,45,0.00,,,0.00,meteohub,2013-04-23 13:46:00,
2013-04-23 06:51:00,60.4,39.0,29.91,South,179,0.0,2.0,45,0.00,,,0.00,meteohub,2013-04-23 13:51:00,
2013-04-23 06:56:00,61.0,38.8,29.91,SW,215,0.0,2.0,44,0.00,,,0.00,meteohub,2013-04-23 13:56:00,
2013-04-23 07:02:00,61.3,38.7,29.91,East,100,0.0,2.0,43,0.00,,,0.00,meteohub,2013-04-23 14:02:00,
2013-04-23 07:07:00,61.5,38.8,29.91,ESE,110,0.0,1.0,43,0.00,,,0.00,meteohub,2013-04-23 14:07:00,
2013-04-23 07:12:00,61.9,39.2,29.91,East,100,1.0,1.0,43,0.00,,,0.00,meteohub,2013-04-23 14:12:00,
2013-04-23 07:17:00,61.9,41.4,29.91,ENE,68,0.0,1.0,47,0.00,,,0.00,meteohub,2013-04-23 14:17:00,
2013-04-23 07:22:00,61.5,39.9,29.92,NNE,27,0.0,1.0,45,0.00,,,0.00,meteohub,2013-04-23 14:22:00,
2013-04-23 07:27:00,61.3,39.7,29.92,NW,314,0.0,1.0,45,0.00,,,0.00,meteohub,2013-04-23 14:27:00,
2013-04-23 07:32:00,61.3,39.2,29.92,NW,313,0.0,1.0,44,0.00,,,0.00,meteohub,2013-04-23 14:32:00,
2013-04-23 07:37:00,61.7,40.6,29.92,NW,319,0.0,1.0,46,0.00,,,0.00,meteohub,2013-04-23 14:37:00,
2013-04-23 07:42:00,62.1,41.0,29.92,NW,319,0.0,1.0,46,0.00,,,0.00,meteohub,2013-04-23 14:42:00,
2013-04-23 07:47:00,62.8,40.5,29.92,NW,319,0.0,1.0,44,0.00,,,0.00,meteohub,2013-04-23 14:47:00,
2013-04-23 07:52:00,63.9,41.0,29.92,ESE,120,1.0,1.0,43,0.00,,,0.00,meteohub,2013-04-23 14:52:00,
2013-04-23 07:57:00,65.1,38.1,29.92,ESE,121,0.0,1.0,37,0.00,,,0.00,meteohub,2013-04-23 14:57:00,
2013-04-23 08:02:00,66.0,35.2,29.93,ESE,113,0.0,2.0,32,0.00,,,0.00,meteohub,2013-04-23 15:02:00,
2013-04-23 08:07:00,66.6,34.2,29.93,SSE,153,2.0,3.0,30,0.00,,,0.00,meteohub,2013-04-23 15:07:00,
2013-04-23 08:12:00,66.9,34.5,29.93,ESE,112,1.0,4.0,30,0.00,,,0.00,meteohub,2013-04-23 15:12:00,
2013-04-23 08:17:00,67.3,34.7,29.93,SSE,155,2.0,4.0,30,0.00,,,0.00,meteohub,2013-04-23 15:17:00,
2013-04-23 08:22:00,67.5,35.8,29.93,SE,136,1.0,4.0,31,0.00,,,0.00,meteohub,2013-04-23 15:22:00,
2013-04-23 08:27:00,67.5,35.8,29.93,ESE,109,1.0,4.0,31,0.00,,,0.00,meteohub,2013-04-23 15:27:00,
2013-04-23 08:32:00,67.1,37.0,29.93,East,94,4.0,5.0,33,0.00,,,0.00,meteohub,2013-04-23 15:32:00,
2013-04-23 08:37:00,67.5,36.5,29.93,ESE,113,0.0,5.0,32,0.00,,,0.00,meteohub,2013-04-23 15:37:00,
2013-04-23 08:42:00,67.8,32.5,29.94,South,177,2.0,8.0,27,0.00,,,0.00,meteohub,2013-04-23 15:42:00,
2013-04-23 08:47:00,67.8,32.5,29.94,NE,41,4.0,10.0,27,0.00,,,0.00,meteohub,2013-04-23 15:47:00,
2013-04-23 08:52:00,68.2,32.9,29.94,SW,215,2.0,10.0,27,0.00,,,0.00,meteohub,2013-04-23 15:52:00,
2013-04-23 08:57:00,68.4,33.1,29.93,East,95,1.0,10.0,27,0.00,,,0.00,meteohub,2013-04-23 15:57:00,
2013-04-23 09:02:00,68.5,31.3,29.93,East,97,7.0,9.0,25,0.00,,,0.00,meteohub,2013-04-23 16:02:00,
2013-04-23 09:07:00,68.5,32.4,29.93,East,82,6.0,12.0,26,0.00,,,0.00,meteohub,2013-04-23 16:07:00,
2013-04-23 09:12:00,68.4,34.0,29.93,SSE,158,3.0,12.0,28,0.00,,,0.00,meteohub,2013-04-23 16:12:00,
2013-04-23 09:17:00,68.4,34.0,29.93,ENE,64,6.0,12.0,28,0.00,,,0.00,meteohub,2013-04-23 16:17:00,
2013-04-23 09:22:00,68.5,33.3,29.93,SW,225,5.0,13.0,27,0.00,,,0.00,meteohub,2013-04-23 16:22:00,
2013-04-23 09:27:00,68.5,36.0,29.94,North,352,3.0,13.0,30,0.00,,,0.00,meteohub,2013-04-23 16:27:00,
2013-04-23 09:32:00,68.5,33.3,29.94,East,79,4.0,13.0,27,0.00,,,0.00,meteohub,2013-04-23 16:32:00,
2013-04-23 09:37:00,69.1,32.7,29.94,ESE,108,2.0,6.0,26,0.00,,,0.00,meteohub,2013-04-23 16:37:00,
2013-04-23 09:42:00,69.4,33.1,29.94,ENE,60,0.0,6.0,26,0.00,,,0.00,meteohub,2013-04-23 16:42:00,
2013-04-23 09:47:00,69.6,34.2,29.94,NNE,23,1.0,5.0,27,0.00,,,0.00,meteohub,2013-04-23 16:47:00,
2013-04-23 09:52:00,69.1,34.5,29.94,NNE,32,4.0,5.0,28,0.00,,,0.00,meteohub,2013-04-23 16:52:00,
2013-04-23 09:57:00,68.7,34.3,29.94,NNW,348,2.0,6.0,28,0.00,,,0.00,meteohub,2013-04-23 16:57:00,
2013-04-23 10:02:00,68.7,36.0,29.94,East,92,3.0,7.0,30,0.00,,,0.00,meteohub,2013-04-23 17:02:00,
2013-04-23 10:07:00,69.1,34.5,29.94,NNW,341,4.0,7.0,28,0.00,,,0.00,meteohub,2013-04-23 17:07:00,
2013-04-23 10:12:00,69.4,32.0,29.94,NE,40,4.0,8.0,25,0.00,,,0.00,meteohub,2013-04-23 17:12:00,
2013-04-23 10:17:00,69.4,34.0,29.94,NNW,340,3.0,9.0,27,0.00,,,0.00,meteohub,2013-04-23 17:17:00,
2013-04-23 10:22:00,70.2,32.7,29.94,NNW,327,2.0,9.0,25,0.00,,,0.00,meteohub,2013-04-23 17:22:00,
2013-04-23 10:27:00,69.4,38.3,29.94,NNW,347,3.0,9.0,32,0.00,,,0.00,meteohub,2013-04-23 17:27:00,
2013-04-23 10:32:00,68.7,37.6,29.94,NNW,341,3.0,8.0,32,0.00,,,0.00,meteohub,2013-04-23 17:32:00,
2013-04-23 10:37:00,68.0,37.8,29.94,NW,322,3.0,8.0,33,0.00,,,0.00,meteohub,2013-04-23 17:37:00,
2013-04-23 10:42:00,68.5,36.0,29.94,NW,309,5.0,7.0,30,0.00,,,0.00,meteohub,2013-04-23 17:42:00,
2013-04-23 10:47:00,69.1,37.2,29.94,North,350,4.0,7.0,31,0.00,,,0.00,meteohub,2013-04-23 17:47:00,
2013-04-23 10:52:00,69.4,37.4,29.94,North,5,4.0,6.0,31,0.00,,,0.00,meteohub,2013-04-23 17:52:00,
2013-04-23 10:57:00,69.6,39.2,29.94,North,356,5.0,5.0,33,0.00,,,0.00,meteohub,2013-04-23 17:57:00,
2013-04-23 11:02:00,68.7,40.6,29.94,North,6,7.0,7.0,36,0.00,,,0.00,meteohub,2013-04-23 18:02:00,
2013-04-23 11:07:00,67.3,43.3,29.95,NNW,347,3.0,8.0,42,0.00,,,0.00,meteohub,2013-04-23 18:07:00,
2013-04-23 11:12:00,66.7,43.5,29.95,NNW,329,5.0,8.0,43,0.00,,,0.00,meteohub,2013-04-23 18:12:00,
2013-04-23 11:17:00,65.8,44.4,29.95,NNW,336,4.0,9.0,46,0.00,,,0.00,meteohub,2013-04-23 18:17:00,
2013-04-23 11:22:00,64.9,45.3,29.96,NNW,338,6.0,9.0,49,0.00,,,0.00,meteohub,2013-04-23 18:22:00,
2013-04-23 11:27:00,64.6,46.0,29.96,North,6,9.0,10.0,51,0.00,,,0.00,meteohub,2013-04-23 18:27:00,
2013-04-23 11:32:00,64.2,45.7,29.96,NNE,32,4.0,10.0,51,0.00,,,0.00,meteohub,2013-04-23 18:32:00,
2013-04-23 11:37:00,63.7,45.7,29.96,North,356,6.0,10.0,52,0.00,,,0.00,meteohub,2013-04-23 18:37:00,
2013-04-23 11:42:00,63.0,46.6,29.96,NNE,15,11.0,13.0,55,0.00,,,0.00,meteohub,2013-04-23 18:42:00,
2013-04-23 11:47:00,62.4,46.9,29.96,NNW,345,5.0,13.0,57,0.00,,,0.00,meteohub,2013-04-23 18:47:00,
2013-04-23 11:52:00,62.8,47.3,29.96,North,352,4.0,12.0,57,0.00,,,0.00,meteohub,2013-04-23 18:52:00,
2013-04-23 11:57:00,62.2,47.7,29.96,North,356,5.0,12.0,59,0.00,,,0.00,meteohub,2013-04-23 18:57:00,
2013-04-23 12:02:00,61.2,48.0,29.96,North,10,4.0,11.0,62,0.00,,,0.00,meteohub,2013-04-23 19:02:00,
2013-04-23 12:07:00,60.8,48.6,29.96,NW,308,4.0,16.0,64,0.00,,,0.00,meteohub,2013-04-23 19:07:00,
2013-04-23 12:12:00,60.8,47.7,29.96,NNE,18,5.0,16.0,62,0.00,,,0.00,meteohub,2013-04-23 19:12:00,
2013-04-23 12:17:00,61.0,47.8,29.96,NNE,27,6.0,15.0,62,0.00,,,0.00,meteohub,2013-04-23 19:17:00,
2013-04-23 12:22:00,61.2,48.4,29.96,North,1,8.0,14.0,63,0.00,,,0.00,meteohub,2013-04-23 19:22:00,
2013-04-23 12:27:00,61.2,49.3,29.96,North,350,4.0,14.0,65,0.00,,,0.00,meteohub,2013-04-23 19:27:00,
2013-04-23 12:32:00,59.4,48.7,29.96,NNE,13,9.0,12.0,68,0.00,,,0.00,meteohub,2013-04-23 19:32:00,
2013-04-23 12:37:00,58.3,48.9,29.96,NNW,334,13.0,17.0,71,0.00,,,0.00,meteohub,2013-04-23 19:37:00,
2013-04-23 12:42:00,57.4,48.7,29.96,North,354,8.0,21.0,73,0.00,,,0.00,meteohub,2013-04-23 19:42:00,
2013-04-23 12:47:00,57.0,48.7,29.96,NNE,15,9.0,21.0,74,0.00,,,0.00,meteohub,2013-04-23 19:47:00,
2013-04-23 12:52:00,57.4,49.5,29.96,NE,38,8.0,22.0,75,0.00,,,0.00,meteohub,2013-04-23 19:52:00,
2013-04-23 12:57:00,57.9,49.6,29.95,NNW,335,5.0,22.0,74,0.00,,,0.00,meteohub,2013-04-23 19:57:00,
2013-04-23 13:02:00,57.6,49.3,29.96,North,352,5.0,22.0,74,0.00,,,0.00,meteohub,2013-04-23 20:02:00,
2013-04-23 13:07:00,57.9,49.3,29.96,NW,325,4.0,16.0,73,0.00,,,0.00,meteohub,2013-04-23 20:07:00,
2013-04-23 13:13:00,57.9,49.3,29.95,NNE,15,5.0,16.0,73,0.00,,,0.00,meteohub,2013-04-23 20:13:00,
2013-04-23 13:18:00,58.5,49.8,29.95,North,354,4.0,16.0,73,0.00,,,0.00,meteohub,2013-04-23 20:18:00,
2013-04-23 13:23:00,58.3,49.6,29.95,West,265,9.0,17.0,73,0.00,,,0.00,meteohub,2013-04-23 20:23:00,
2013-04-23 13:28:00,58.6,49.6,29.95,East,92,8.0,17.0,72,0.00,,,0.00,meteohub,2013-04-23 20:28:00,
2013-04-23 13:33:00,58.5,49.8,29.95,North,5,6.0,17.0,73,0.00,,,0.00,meteohub,2013-04-23 20:33:00,
2013-04-23 13:38:00,58.6,49.6,29.95,NNE,20,9.0,13.0,72,0.00,,,0.00,meteohub,2013-04-23 20:38:00,
2013-04-23 13:44:00,58.6,49.6,29.95,North,349,9.0,13.0,72,0.00,,,0.00,meteohub,2013-04-23 20:44:00,
2013-04-23 13:49:00,57.9,49.3,29.95,NE,37,7.0,12.0,73,0.00,,,0.00,meteohub,2013-04-23 20:49:00,
2013-04-23 13:54:00,58.1,49.1,29.95,NNW,334,5.0,12.0,72,0.00,,,0.00,meteohub,2013-04-23 20:54:00,
2013-04-23 13:59:00,58.5,49.8,29.95,NNW,347,5.0,14.0,73,0.00,,,0.00,meteohub,2013-04-23 20:59:00,
2013-04-23 14:04:00,58.5,49.5,29.95,NW,319,2.0,15.0,72,0.00,,,0.00,meteohub,2013-04-23 21:04:00,
2013-04-23 14:09:00,57.9,49.3,29.94,NNE,16,14.0,15.0,73,0.00,,,0.00,meteohub,2013-04-23 21:09:00,
2013-04-23 14:14:00,58.1,49.5,29.94,NNW,338,8.0,17.0,73,0.00,,,0.00,meteohub,2013-04-23 21:14:00,
2013-04-23 14:20:00,58.3,49.6,29.94,North,1,3.0,17.0,73,0.00,,,0.00,meteohub,2013-04-23 21:20:00,
2013-04-23 14:25:00,58.1,49.5,29.94,NNW,343,4.0,17.0,73,0.00,,,0.00,meteohub,2013-04-23 21:25:00,
2013-04-23 14:30:00,58.5,49.5,29.94,WNW,303,4.0,18.0,72,0.00,,,0.00,meteohub,2013-04-23 21:30:00,
2013-04-23 14:35:00,58.5,49.5,29.94,NE,48,11.0,18.0,72,0.00,,,0.00,meteohub,2013-04-23 21:35:00,
2013-04-23 14:40:00,57.9,49.3,29.94,NE,43,10.0,12.0,73,0.00,,,0.00,meteohub,2013-04-23 21:40:00,
2013-04-23 14:45:00,57.9,49.3,29.94,NNE,29,7.0,14.0,73,0.00,,,0.00,meteohub,2013-04-23 21:45:00,
2013-04-23 14:50:00,57.9,49.6,29.94,NW,306,6.0,14.0,74,0.00,,,0.00,meteohub,2013-04-23 21:50:00,
2013-04-23 14:55:00,57.7,49.5,29.94,NW,309,6.0,15.0,74,0.00,,,0.00,meteohub,2013-04-23 21:55:00,
2013-04-23 15:01:00,58.1,49.5,29.93,NW,326,7.0,15.0,73,0.00,,,0.00,meteohub,2013-04-23 22:01:00,
2013-04-23 15:06:00,58.3,49.3,29.93,NNE,15,6.0,15.0,72,0.00,,,0.00,meteohub,2013-04-23 22:06:00,
2013-04-23 15:11:00,57.7,49.1,29.93,NNW,343,5.0,17.0,73,0.00,,,0.00,meteohub,2013-04-23 22:11:00,
2013-04-23 15:16:00,57.9,49.3,29.93,North,355,10.0,17.0,73,0.00,,,0.00,meteohub,2013-04-23 22:16:00,
2013-04-23 15:21:00,57.9,49.3,29.93,NNW,346,5.0,17.0,73,0.00,,,0.00,meteohub,2013-04-23 22:21:00,
2013-04-23 15:26:00,58.3,49.3,29.93,NE,46,7.0,15.0,72,0.00,,,0.00,meteohub,2013-04-23 22:26:00,
2013-04-23 15:31:00,58.3,49.3,29.93,NNE,23,4.0,18.0,72,0.00,,,0.00,meteohub,2013-04-23 22:31:00,
2013-04-23 15:36:00,58.6,49.3,29.92,NNE,30,9.0,18.0,71,0.00,,,0.00,meteohub,2013-04-23 22:36:00,
2013-04-23 15:41:00,58.5,49.5,29.92,NNW,340,3.0,14.0,72,0.00,,,0.00,meteohub,2013-04-23 22:41:00,
2013-04-23 15:46:00,58.3,49.6,29.92,NW,326,8.0,15.0,73,0.00,,,0.00,meteohub,2013-04-23 22:46:00,
2013-04-23 15:52:00,58.5,49.5,29.92,NNE,16,5.0,15.0,72,0.00,,,0.00,meteohub,2013-04-23 22:52:00,
2013-04-23 15:57:00,58.5,49.8,29.92,NNE,24,9.0,15.0,73,0.00,,,0.00,meteohub,2013-04-23 22:57:00,
2013-04-23 16:02:00,58.5,49.8,29.91,NNE,33,13.0,14.0,73,0.00,,,0.00,meteohub,2013-04-23 23:02:00,
2013-04-23 16:07:00,57.9,49.3,29.91,North,0,4.0,13.0,73,0.00,,,0.00,meteohub,2013-04-23 23:07:00,
2013-04-23 16:12:00,57.9,49.3,29.91,NNE,29,2.0,13.0,73,0.00,,,0.00,meteohub,2013-04-23 23:12:00,
2013-04-23 16:17:00,58.3,49.6,29.91,NW,322,10.0,13.0,73,0.00,,,0.00,meteohub,2013-04-23 23:17:00,
2013-04-23 16:22:00,57.6,48.9,29.91,NW,316,4.0,14.0,73,0.00,,,0.00,meteohub,2013-04-23 23:22:00,
2013-04-23 16:27:00,57.2,48.9,29.91,NNE,12,6.0,16.0,74,0.00,,,0.00,meteohub,2013-04-23 23:27:00,
2013-04-23 16:32:00,57.0,48.7,29.91,North,358,14.0,18.0,74,0.00,,,0.00,meteohub,2013-04-23 23:32:00,
2013-04-23 16:37:00,57.0,49.1,29.91,NW,309,3.0,18.0,75,0.00,,,0.00,meteohub,2013-04-23 23:37:00,
2013-04-23 16:42:00,56.7,48.7,29.91,North,352,8.0,17.0,75,0.00,,,0.00,meteohub,2013-04-23 23:42:00,
2013-04-23 16:47:00,56.7,49.1,29.91,NNE,20,5.0,17.0,76,0.00,,,0.00,meteohub,2013-04-23 23:47:00,
2013-04-23 16:52:00,56.7,49.1,29.91,NNW,332,10.0,15.0,76,0.00,,,0.00,meteohub,2013-04-23 23:52:00,
2013-04-23 16:57:00,56.7,49.5,29.91,North,352,7.0,16.0,77,0.00,,,0.00,meteohub,2013-04-23 23:57:00,
2013-04-23 17:02:00,56.8,49.3,29.90,NNE,27,6.0,16.0,76,0.00,,,0.00,meteohub,2013-04-24 00:02:00,
2013-04-23 17:07:00,56.7,49.1,29.91,NNW,329,12.0,16.0,76,0.00,,,0.00,meteohub,2013-04-24 00:07:00,
2013-04-23 17:12:00,55.9,48.9,29.90,NNE,27,9.0,15.0,77,0.00,,,0.00,meteohub,2013-04-24 00:12:00,
2013-04-23 17:17:00,55.6,48.6,29.91,North,7,11.0,17.0,77,0.00,,,0.00,meteohub,2013-04-24 00:17:00,
2013-04-23 17:22:00,55.6,48.9,29.91,NNE,29,4.0,17.0,78,0.00,,,0.00,meteohub,2013-04-24 00:22:00,
2013-04-23 17:27:00,54.9,48.2,29.91,North,11,9.0,16.0,78,0.00,,,0.00,meteohub,2013-04-24 00:27:00,
2013-04-23 17:32:00,54.1,48.0,29.91,North,352,6.0,16.0,80,0.00,,,0.00,meteohub,2013-04-24 00:32:00,
2013-04-23 17:37:00,53.8,48.0,29.91,NNW,346,2.0,16.0,81,0.00,,,0.00,meteohub,2013-04-24 00:37:00,
2013-04-23 17:42:00,54.0,48.6,29.91,North,352,7.0,15.0,82,0.00,,,0.00,meteohub,2013-04-24 00:42:00,
2013-04-23 17:47:00,54.0,48.2,29.91,East,79,1.0,15.0,81,0.00,,,0.00,meteohub,2013-04-24 00:47:00,
2013-04-23 17:52:00,53.6,47.8,29.91,NNW,333,2.0,13.0,81,0.00,,,0.00,meteohub,2013-04-24 00:52:00,
2013-04-23 17:57:00,53.4,48.0,29.91,East,79,2.0,11.0,82,0.00,,,0.00,meteohub,2013-04-24 00:57:00,
2013-04-23 18:02:00,53.4,48.4,29.91,WNW,287,5.0,11.0,83,0.00,,,0.00,meteohub,2013-04-24 01:02:00,
2013-04-23 18:07:00,53.4,48.0,29.91,NE,37,2.0,11.0,82,0.00,,,0.00,meteohub,2013-04-24 01:07:00,
2013-04-23 18:12:00,53.2,47.8,29.91,North,6,4.0,8.0,82,0.00,,,0.00,meteohub,2013-04-24 01:12:00,
2013-04-23 18:17:00,53.4,48.4,29.91,NNW,332,4.0,11.0,83,0.00,,,0.00,meteohub,2013-04-24 01:17:00,
2013-04-23 18:22:00,53.2,47.8,29.91,North,11,7.0,11.0,82,0.00,,,0.00,meteohub,2013-04-24 01:22:00,
2013-04-23 18:27:00,52.3,47.7,29.91,NNW,336,3.0,18.0,84,0.00,,,0.00,meteohub,2013-04-24 01:27:00,
2013-04-23 18:32:00,52.2,47.5,29.91,North,1,11.0,18.0,84,0.00,,,0.00,meteohub,2013-04-24 01:32:00,
2013-04-23 18:37:00,52.0,47.7,29.91,NW,314,4.0,18.0,85,0.00,,,0.00,meteohub,2013-04-24 01:37:00,
2013-04-23 18:42:00,51.6,47.3,29.91,NNW,342,5.0,15.0,85,0.00,,,0.00,meteohub,2013-04-24 01:42:00,
2013-04-23 18:47:00,51.4,47.5,29.91,NNE,13,1.0,14.0,86,0.00,,,0.00,meteohub,2013-04-24 01:47:00,
2013-04-23 18:52:00,51.4,47.5,29.91,North,352,3.0,12.0,86,0.00,,,0.00,meteohub,2013-04-24 01:52:00,
2013-04-23 18:57:00,51.3,47.3,29.91,NNE,20,6.0,12.0,86,0.00,,,0.00,meteohub,2013-04-24 01:57:00,
2013-04-23 19:02:00,51.3,47.3,29.90,NNW,338,3.0,16.0,86,0.00,,,0.00,meteohub,2013-04-24 02:02:00,
2013-04-23 19:07:00,51.1,47.1,29.90,NW,305,3.0,16.0,86,0.00,,,0.00,meteohub,2013-04-24 02:07:00,
2013-04-23 19:12:00,51.1,47.1,29.90,WNW,288,6.0,13.0,86,0.00,,,0.00,meteohub,2013-04-24 02:12:00,
2013-04-23 19:17:00,50.7,46.9,29.90,NNE,25,7.0,13.0,87,0.00,,,0.00,meteohub,2013-04-24 02:17:00,
2013-04-23 19:22:00,50.5,46.8,29.90,NNW,330,5.0,9.0,87,0.00,,,0.00,meteohub,2013-04-24 02:22:00,
2013-04-23 19:27:00,50.5,47.1,29.90,NNW,335,4.0,9.0,88,0.00,,,0.00,meteohub,2013-04-24 02:27:00,
2013-04-23 19:32:00,50.4,46.9,29.90,NNW,342,4.0,10.0,88,0.00,,,0.00,meteohub,2013-04-24 02:32:00,
2013-04-23 19:38:00,50.4,46.9,29.90,North,356,6.0,11.0,88,0.00,,,0.00,meteohub,2013-04-24 02:38:00,
2013-04-23 19:43:00,50.4,46.9,29.90,NNW,342,3.0,11.0,88,0.00,,,0.00,meteohub,2013-04-24 02:43:00,
2013-04-23 19:48:00,50.4,46.9,29.90,NNW,338,1.0,11.0,88,0.00,,,0.00,meteohub,2013-04-24 02:48:00,
2013-04-23 19:53:00,50.4,46.9,29.90,NW,318,2.0,7.0,88,0.00,,,0.00,meteohub,2013-04-24 02:53:00,
2013-04-23 19:58:00,50.4,46.9,29.90,NW,305,4.0,7.0,88,0.00,,,0.00,meteohub,2013-04-24 02:58:00,
2013-04-23 20:03:00,50.2,46.8,29.90,NW,304,2.0,8.0,88,0.00,,,0.00,meteohub,2013-04-24 03:03:00,
2013-04-23 20:08:00,50.2,47.1,29.90,NE,34,2.0,8.0,89,0.00,,,0.00,meteohub,2013-04-24 03:08:00,
2013-04-23 20:14:00,50.2,47.1,29.91,North,6,6.0,8.0,89,0.00,,,0.00,meteohub,2013-04-24 03:14:00,
2013-04-23 20:19:00,49.8,46.8,29.91,WNW,297,1.0,8.0,89,0.00,,,0.00,meteohub,2013-04-24 03:19:00,
2013-04-23 20:25:00,49.8,46.8,29.91,NNE,22,2.0,9.0,89,0.00,,,0.00,meteohub,2013-04-24 03:25:00,
2013-04-23 20:31:00,49.8,46.8,29.91,NW,305,1.0,6.0,89,0.00,,,0.00,meteohub,2013-04-24 03:31:00,
2013-04-23 20:36:00,49.8,46.8,29.91,NW,306,2.0,8.0,89,0.00,,,0.00,meteohub,2013-04-24 03:36:00,
2013-04-23 20:42:00,49.8,46.8,29.91,North,350,4.0,8.0,89,0.00,,,0.00,meteohub,2013-04-24 03:42:00,
2013-04-23 20:47:00,49.8,46.8,29.92,NNW,342,2.0,8.0,89,0.00,,,0.00,meteohub,2013-04-24 03:47:00,
2013-04-23 20:52:00,49.6,46.6,29.92,NNW,340,2.0,10.0,89,0.00,,,0.00,meteohub,2013-04-24 03:52:00,
2013-04-23 20:58:00,49.6,46.6,29.91,NNW,340,3.0,10.0,89,0.00,,,0.00,meteohub,2013-04-24 03:58:00,
2013-04-23 21:01:00,49.6,46.6,29.91,NNE,26,2.0,11.0,89,0.00,,,0.00,meteohub,2013-04-24 04:01:00,
2013-04-23 21:02:00,49.6,46.6,29.91,NNW,336,6.0,11.0,89,0.00,,,0.00,meteohub,2013-04-24 04:02:00,
2013-04-23 21:03:00,49.6,46.6,29.92,NNE,26,3.0,11.0,89,0.00,,,0.00,meteohub,2013-04-24 04:03:00,
2013-04-23 21:08:00,49.5,46.6,29.92,NNW,342,2.0,11.0,90,0.00,,,0.00,meteohub,2013-04-24 04:08:00,
2013-04-23 21:13:00,49.5,46.6,29.92,North,357,1.0,11.0,90,0.00,,,0.00,meteohub,2013-04-24 04:13:00,
2013-04-23 21:18:00,49.6,46.8,29.92,SE,143,1.0,11.0,90,0.00,,,0.00,meteohub,2013-04-24 04:18:00,
2013-04-23 21:23:00,49.6,46.8,29.92,NNW,347,3.0,11.0,90,0.00,,,0.00,meteohub,2013-04-24 04:23:00,
2013-04-23 21:29:00,49.6,46.8,29.92,North,352,4.0,11.0,90,0.00,,,0.00,meteohub,2013-04-24 04:29:00,
2013-04-23 21:34:00,49.6,46.8,29.92,North,349,4.0,11.0,90,0.00,,,0.00,meteohub,2013-04-24 04:34:00,
2013-04-23 21:39:00,49.6,46.8,29.92,NNW,328,5.0,14.0,90,0.00,,,0.00,meteohub,2013-04-24 04:39:00,
2013-04-23 21:44:00,49.5,46.6,29.93,NNE,19,1.0,14.0,90,0.00,,,0.00,meteohub,2013-04-24 04:44:00,
2013-04-23 21:49:00,49.5,46.6,29.92,North,354,5.0,11.0,90,0.00,,,0.00,meteohub,2013-04-24 04:49:00,
2013-04-23 21:54:00,49.5,46.6,29.93,NNW,328,2.0,11.0,90,0.00,,,0.00,meteohub,2013-04-24 04:54:00,
2013-04-23 21:59:00,49.6,46.8,29.93,NNW,333,2.0,9.0,90,0.00,,,0.00,meteohub,2013-04-24 04:59:00,
2013-04-23 22:04:00,49.6,46.8,29.93,NE,34,5.0,11.0,90,0.00,,,0.00,meteohub,2013-04-24 05:04:00,
2013-04-23 22:09:00,49.6,46.8,29.92,NW,314,3.0,11.0,90,0.00,,,0.00,meteohub,2013-04-24 05:09:00,
2013-04-23 22:14:00,49.6,46.6,29.92,NE,46,2.0,11.0,89,0.00,,,0.00,meteohub,2013-04-24 05:14:00,
2013-04-23 22:20:00,49.6,46.6,29.93,NNE,15,3.0,11.0,89,0.00,,,0.00,meteohub,2013-04-24 05:20:00,
2013-04-23 22:25:00,49.8,46.9,29.93,NNW,338,4.0,11.0,90,0.00,,,0.00,meteohub,2013-04-24 05:25:00,
2013-04-23 22:30:00,49.8,46.9,29.92,NW,316,5.0,11.0,90,0.00,,,0.00,meteohub,2013-04-24 05:30:00,
2013-04-23 22:35:00,49.6,46.8,29.92,WNW,295,5.0,11.0,90,0.00,,,0.00,meteohub,2013-04-24 05:35:00,
2013-04-23 22:40:00,49.6,46.8,29.92,NW,307,2.0,9.0,90,0.00,,,0.00,meteohub,2013-04-24 05:40:00,
2013-04-23 22:45:00,49.8,46.8,29.92,NNE,13,1.0,10.0,89,0.00,,,0.00,meteohub,2013-04-24 05:45:00,
2013-04-23 22:50:00,49.6,46.8,29.92,NE,43,2.0,10.0,90,0.00,,,0.00,meteohub,2013-04-24 05:50:00,
2013-04-23 22:55:00,49.8,46.8,29.92,NNE,33,2.0,9.0,89,0.00,,,0.00,meteohub,2013-04-24 05:55:00,
2013-04-23 23:00:00,49.8,46.8,29.92,NNE,25,3.0,9.0,89,0.00,,,0.00,meteohub,2013-04-24 06:00:00,
2013-04-23 23:05:00,49.8,46.8,29.92,North,0,5.0,6.0,89,0.00,,,0.00,meteohub,2013-04-24 06:05:00,
2013-04-23 23:10:00,49.8,46.8,29.92,NNE,15,0.0,6.0,89,0.00,,,0.00,meteohub,2013-04-24 06:10:00,
2013-04-23 23:16:00,49.8,46.8,29.92,NNW,334,1.0,6.0,89,0.00,,,0.00,meteohub,2013-04-24 06:16:00,
2013-04-23 23:21:00,49.8,46.8,29.92,NNE,15,1.0,6.0,89,0.00,,,0.00,meteohub,2013-04-24 06:21:00,
2013-04-23 23:26:00,49.8,46.8,29.92,North,359,2.0,6.0,89,0.00,,,0.00,meteohub,2013-04-24 06:26:00,
2013-04-23 23:31:00,49.8,46.8,29.91,East,86,2.0,6.0,89,0.00,,,0.00,meteohub,2013-04-24 06:31:00,
2013-04-23 23:36:00,49.6,46.6,29.91,North,356,3.0,8.0,89,0.00,,,0.00,meteohub,2013-04-24 06:36:00,
2013-04-23 23:41:00,49.6,46.6,29.91,SSW,198,0.0,10.0,89,0.00,,,0.00,meteohub,2013-04-24 06:41:00,
2013-04-23 23:46:00,49.6,46.6,29.91,NNW,328,0.0,10.0,89,0.00,,,0.00,meteohub,2013-04-24 06:46:00,
2013-04-23 23:51:00,49.6,46.6,29.91,North,8,2.0,5.0,89,0.00,,,0.00,meteohub,2013-04-24 06:51:00,
2013-04-23 23:56:00,49.6,46.6,29.91,North,11,1.0,9.0,89,0.00,,,0.00,meteohub,2013-04-24 06:56:00,